SCP
0 0 0 0 0 0 0 0 0 0 0 0 0 0 0 0 0 0 0 0 0 0 0 0 0 0 0 0 0 0 0 0 0 0 0 0 1 1
0 0 0 0 0 0 0 0 0 0 0 0 0 0 0 0 0 0 0 0 0 0 0 0 0 0 0 0 0 0 0 0 0 0 0 0 1 1
0 0 0 0 0 0 0 0 0 0 0 0 0 0 0 0 0 0 0 0 0 0 0 0 0 0 0 0 0 0 0 0 0 0 0 0 0 1
0 0 0 0 0 0 0 0 0 0 0 0 0 0 0 0 0 0 0 0 0 0 0 0 0 0 0 0 0 0 0 0 0 0 0 0 0 0
0 0 0 0 0 0 0 0 0 0 0 0 0 0 0 0 0 0 0 0 0 0 0 0 0 0 0 0 0 0 0 0 0 0 0 0 0 0
0 0 0 0 0 0 0 0 0 0 0 0 0 0 0 0 0 0 0 0 0 0 0 0 0 0 0 0 0 0 0 0 0 0 0 0 0 0
0 0 0 0 -0 0 0 0 0 0 0 0 0 0 0 0 0 0 0 0 0 0 0 0 0 0 0 0 0 0 0 0 0 0 0 0 0 0
0 0 -0 -0 -0 -0 -0 0 0 0 0 0 0 0 0 0 0 0 0 0 0 0 0 0 0 0 0 0 0 0 0 0 0 0 0 0 0 0
0 0 0 0 0 0 -0 -0 0 0 0 0 0 0 0 0 0 0 0 0 0 0 0 0 0 0 0 0 0 0 0 0 0 -0 0 0 0 0
-0 -0 0 0 0 -0 -0 -0 -0 -0 0 0 0 0 0 0 0 0 0 0 0 0 0 0 0 0 0 0 0 0 0 -0 0 -0 -0 0 0 0
0 0 0 0 0 -0 -0 0 -0 -0 -0 0 0 0 -0 0 0 0 0 0 0 0 0 0 0 0 0 0 0 0 -0 -0 0 0 0 0 0 0
0 0 0 0 -0 -0 -0 -0 -0 0 -0 0 0 0 0 0 0 0 0 0 0 0 0 0 0 0 0 0 0 0 0 -0 -0 0 -0 0 0 0
0 0 0 -0 -0 -0 -0 -0 -0 -0 -0 0 0 0 0 0 0 0 0 0 0 0 0 0 0 0 0 0 0 0 0 0 0 0 0 0 -0 0
0 0 0 -0 -0 0 -0 -0 -0 -0 0 0 0 0 0 0 0 0 0 0 0 0 0 0 0 0 0 0 0 0 0 0 0 0 0 0 0 0
-0 -0 -0 -0 -0 0 0 -0 -0 -0 -0 0 0 0 0 0 0 0 0 0 0 0 0 0 0 0 0 0 0 0 0 0 0 0 0 0 0 0
-0 -0 0 0 0 0 0 0 0 -0 -0 -0 0 0 0 0 0 0 0 0 0 0 0 0 0 -0 -0 0 0 0 0 0 0 0 0 0 0 0
0 0 0 0 0 0 0 0 0 -0 -0 -0 -0 0 0 0 0 0 0 0 0 0 0 0 0 0 0 -0 -0 -0 0 0 0 0 0 0 0 0
0 0 0 0 0 0 0 0 0 0 -0 -0 -0 -0 -0 0 0 0 0 0 0 0 0 0 0 0 0 0 0 -0 0 0 -0 -0 -0 0 0 0
0 -0 0 0 0 0 0 0 0 -0 0 -0 -0 -0 -0 -0 -0 0 0 0 0 0 0 0 0 0 0 0 0 -0 0 -0 -0 -0 -0 -0 -0 -0
-0 -0 -0 -0 -0 -0 -0 0 -0 -0 0 -0 -0 -0 -0 -0 -0 -0 0 0 0 0 0 0 0 0 0 0 0 -0 0 0 0 -0 -0 -0 -0 -0
0 -0 -0 0 0 0 0 0 0 0 0 0 -0 -0 -0 -0 -0 -0 -0 0 -0 0 0 0 0 0 0 0 0 -0 -0 -0 -0 0 0 -0 -0 -0
0 0 0 0 0 0 0 0 0 0 0 0 0 0 0 -0 -0 -0 -0 -0 -0 0 0 0 0 0 0 0 -0 -0 -0 0 -0 -0 -0 -0 -0 -0
0 0 0 0 0 0 0 0 0 0 0 0 0 0 0 0 0 0 0 0 0 0 0 0 0 0 0 0 0 -0 -0 -0 0 -0 -0 -0 -0 -0
Wind_Speed_500mb
36 31 32 32 31 34 37 42 47 62 58 52 56 57 60 60 56 47 57 57 71 82 93 100 98 95 96 96 98 102 96 98 97 96 92 88 87 85
32 32 37 33 36 35 37 39 42 53 68 52 55 56 56 59 65 72 80 85 83 76 74 76 71 74 75 77 84 83 86 98 90 97 97 89 88 85
33 33 34 36 36 36 39 39 39 44 59 60 56 60 64 73 72 73 73 74 77 73 73 75 79 83 81 66 71 85 82 71 86 84 80 83 81 81
34 35 34 33 36 36 36 40 41 46 54 63 66 62 63 66 69 72 78 73 73 69 71 77 77 60 57 61 62 77 80 82 67 74 75 69 74 73
34 34 36 33 34 37 42 42 42 45 48 55 70 71 71 72 73 80 76 76 77 72 72 68 69 65 62 71 66 64 65 65 77 62 64 66 67 66
35 35 33 33 38 44 46 51 55 54 61 67 73 80 74 82 79 79 77 70 71 78 82 75 67 63 67 58 60 56 51 59 64 76 65 62 62 63
33 25 25 27 34 40 49 55 58 66 69 71 74 76 78 79 79 85 87 90 86 75 73 65 51 53 51 51 56 51 47 49 56 66 73 67 66 62
28 29 27 24 35 38 45 49 46 49 56 55 61 67 76 73 73 85 89 82 70 64 42 45 46 54 51 62 56 59 52 51 51 58 69 73 59 68
26 25 25 29 43 51 52 53 43 40 35 41 51 64 80 82 71 75 78 72 68 66 57 63 64 74 75 68 60 57 63 65 64 64 58 67 75 55
15 22 27 39 47 51 55 50 48 39 37 36 39 53 61 67 56 59 65 55 54 49 41 47 43 42 45 38 44 49 60 55 53 54 67 56 57 68
25 27 32 38 41 50 59 63 48 46 32 39 42 54 55 64 58 58 59 52 50 51 40 29 45 48 45 26 41 42 46 39 39 43 41 50 54 57
23 25 33 24 36 48 57 66 61 59 56 51 45 51 55 66 64 53 62 47 37 28 30 30 37 36 36 41 63 61 27 28 29 33 36 46 53 54
20 21 24 26 30 45 50 57 62 60 64 54 52 51 56 57 69 51 54 49 36 29 24 28 37 36 44 64 66 32 11 11 10 19 25 33 41 44
24 30 33 32 36 45 45 56 60 54 63 73 62 54 55 63 60 68 39 39 48 38 33 35 49 51 48 55 34 27 14 4 19 18 11 20 25 39
30 27 36 38 35 33 43 50 46 52 50 71 75 68 54 51 52 52 61 34 44 42 43 34 41 45 25 37 28 35 26 20 9 15 20 21 28 34
28 38 38 39 37 37 41 44 44 49 50 49 69 70 64 57 47 60 56 68 62 45 41 44 60 48 47 37 36 36 32 21 18 8 10 20 25 31
36 32 33 36 38 41 44 45 44 49 49 50 52 63 68 62 61 58 63 62 66 67 46 44 59 45 42 51 46 39 31 25 20 15 8 10 19 23
22 28 32 36 38 41 44 45 45 47 49 46 46 50 60 65 62 60 59 66 73 73 60 44 38 36 40 40 57 47 34 29 23 18 15 20 20 16
27 30 33 37 38 39 40 41 44 45 45 45 44 45 48 52 63 64 63 65 66 68 69 55 46 39 36 36 46 50 40 33 31 32 33 40 37 33
31 32 34 36 37 38 39 41 43 45 47 46 44 44 44 45 56 60 61 65 60 58 61 65 56 42 36 35 33 39 36 37 39 47 47 51 52 48
31 31 32 33 36 37 38 39 41 45 47 46 45 46 45 41 44 48 50 57 59 53 54 57 56 45 26 18 16 25 31 34 34 39 43 52 61 65
31 32 32 33 35 37 39 41 42 44 46 46 47 49 51 42 41 43 49 53 60 49 46 40 51 42 28 12 8 9 12 17 19 18 25 22 27 56
31 31 31 34 35 36 38 41 42 45 47 46 48 49 52 53 50 45 45 50 59 53 52 44 42 43 30 16 7 11 15 18 22 24 39 35 42 57
Wind_Direction_500mb
312 316 298 300 297 292 290 292 293 299 299 302 303 297 290 292 280 289 280 276 278 281 280 283 281 279 277 274 272 267 261 256 254 255 255 251 246 244
313 304 305 304 301 302 298 294 293 295 297 303 301 299 293 290 285 283 281 284 287 288 291 295 294 288 283 278 271 267 263 255 253 252 255 249 245 241
313 310 306 308 309 306 302 303 303 302 299 303 302 304 299 297 299 296 294 289 292 292 289 285 283 282 284 289 284 272 265 265 253 252 253 246 245 242
313 311 310 311 308 307 308 302 301 301 302 304 305 303 299 293 294 290 286 282 283 281 282 284 287 285 291 283 293 288 269 256 255 250 245 239 241 242
310 305 306 307 309 307 310 310 307 305 303 297 301 306 301 294 299 297 292 290 283 278 284 289 289 289 288 292 288 291 276 267 251 243 245 236 235 235
307 312 316 327 319 314 309 310 314 304 300 301 300 302 300 312 314 304 297 299 287 284 289 284 283 284 282 295 292 293 278 267 259 245 240 238 232 231
306 319 320 309 310 310 309 313 311 308 307 306 306 311 320 322 319 319 307 309 306 303 298 292 279 279 283 283 284 295 286 274 262 246 242 236 236 231
332 334 337 341 318 317 319 318 320 323 319 320 320 318 322 330 329 323 313 305 297 305 298 293 281 264 265 283 282 275 274 274 269 251 241 237 231 236
333 341 352 343 335 339 341 339 329 316 325 330 323 327 323 335 334 329 321 308 306 311 301 295 293 288 288 288 276 271 272 264 268 249 241 239 238 234
358 13 349 348 349 357 360 1 3 3 342 347 343 357 357 347 334 333 331 321 318 326 323 299 328 318 321 305 292 283 270 263 258 248 245 232 227 228
32 7 354 346 4 10 11 8 3 359 355 351 353 355 1 4 349 341 344 341 332 333 345 321 336 336 336 337 320 309 273 257 260 249 232 227 219 219
34 354 341 352 18 15 16 12 7 9 359 357 359 1 360 7 3 3 3 355 349 349 351 339 352 347 331 312 320 330 252 246 251 240 224 222 222 220
12 349 359 5 20 11 10 8 8 12 10 6 8 8 23 16 12 10 8 10 9 1 357 346 343 346 338 328 345 359 45 203 232 221 212 216 218 220
1 3 3 5 24 9 8 8 2 11 9 16 14 14 10 19 19 17 2 359 8 8 8 358 337 337 333 334 350 356 39 127 104 155 177 202 208 206
11 11 14 5 18 6 8 7 5 359 2 13 18 19 17 20 20 15 18 9 356 6 0 356 355 8 359 358 4 18 37 61 161 145 179 196 199 198
2 7 5 10 10 2 7 6 4 359 1 358 12 19 21 26 21 27 6 12 11 1 7 3 349 0 25 21 27 31 34 44 52 90 224 231 219 208
359 356 359 4 4 360 3 1 360 358 359 357 354 10 22 25 32 34 29 20 13 12 13 13 12 11 2 21 31 26 28 37 43 52 83 153 186 199
4 1 2 4 3 360 358 357 357 355 356 355 354 354 359 15 21 27 30 28 21 20 18 13 13 9 11 12 28 30 30 36 44 57 79 107 112 129
15 13 7 6 3 359 357 357 355 352 354 355 354 354 352 357 10 18 21 24 16 16 19 17 20 21 18 16 27 33 39 50 69 81 91 91 95 93
22 17 12 7 2 1 358 357 355 353 356 355 354 353 352 357 353 6 15 15 13 13 8 12 14 7 14 26 43 41 51 61 75 82 82 90 91 92
14 14 9 5 1 359 358 357 357 354 354 354 353 353 355 357 353 352 3 8 7 10 10 4 3 2 0 357 19 61 64 70 70 76 89 97 98 96
14 15 11 6 2 0 359 358 355 355 354 354 352 351 360 3 353 352 7 3 2 6 5 359 352 357 355 2 18 59 58 54 91 77 81 88 103 106
13 13 11 7 3 2 359 359 354 354 353 353 352 349 1 5 2 11 2 358 359 2 1 4 349 350 351 350 16 73 79 86 89 93 81 97 113 110
Wind_Speed_850mb
36 31 32 32 31 34 37 42 47 62 58 52 56 57 60 60 56 47 57 57 71 82 93 100 98 95 96 96 98 102 96 98 97 96 92 88 87 85
32 32 37 33 36 35 37 39 42 53 68 52 55 56 56 59 65 72 80 85 83 76 74 76 71 74 75 77 84 83 86 98 90 97 97 89 88 85
33 33 34 36 36 36 39 39 39 44 59 60 56 60 64 73 72 73 73 74 77 73 73 75 79 83 81 66 71 85 82 71 86 84 80 83 81 81
34 35 34 33 36 36 36 40 41 46 54 63 66 62 63 66 69 72 78 73 73 69 71 77 77 60 57 61 62 77 80 82 67 74 75 69 74 73
34 34 36 33 34 37 42 42 42 45 48 55 70 71 71 72 73 80 76 76 77 72 72 68 69 65 62 71 66 64 65 65 77 62 64 66 67 66
35 35 33 33 38 44 46 51 55 54 61 67 73 80 74 82 79 79 77 70 71 78 82 75 67 63 67 58 60 56 51 59 64 76 65 62 62 63
33 25 25 27 34 40 49 55 58 66 69 71 74 76 78 79 79 85 87 90 86 75 73 65 51 53 51 51 56 51 47 49 56 66 73 67 66 62
28 29 27 24 35 38 45 49 46 49 56 55 61 67 76 73 73 85 89 82 70 64 42 45 46 54 51 62 56 59 52 51 51 58 69 73 59 68
26 25 25 29 43 51 52 53 43 40 35 41 51 64 80 82 71 75 78 72 68 66 57 63 64 74 75 68 60 57 63 65 64 64 58 67 75 55
15 22 27 39 47 51 55 50 48 39 37 36 39 53 61 67 56 59 65 55 54 49 41 47 43 42 45 38 44 49 60 55 53 54 67 56 57 68
25 27 32 38 41 50 59 63 48 46 32 39 42 54 55 64 58 58 59 52 50 51 40 29 45 48 45 26 41 42 46 39 39 43 41 50 54 57
23 25 33 24 36 48 57 66 61 59 56 51 45 51 55 66 64 53 62 47 37 28 30 30 37 36 36 41 63 61 27 28 29 33 36 46 53 54
20 21 24 26 30 45 50 57 62 60 64 54 52 51 56 57 69 51 54 49 36 29 24 28 37 36 44 64 66 32 11 11 10 19 25 33 41 44
24 30 33 32 36 45 45 56 60 54 63 73 62 54 55 63 60 68 39 39 48 38 33 35 49 51 48 55 34 27 14 4 19 18 11 20 25 39
30 27 36 38 35 33 43 50 46 52 50 71 75 68 54 51 52 52 61 34 44 42 43 34 41 45 25 37 28 35 26 20 9 15 20 21 28 34
28 38 38 39 37 37 41 44 44 49 50 49 69 70 64 57 47 60 56 68 62 45 41 44 60 48 47 37 36 36 32 21 18 8 10 20 25 31
36 32 33 36 38 41 44 45 44 49 49 50 52 63 68 62 61 58 63 62 66 67 46 44 59 45 42 51 46 39 31 25 20 15 8 10 19 23
22 28 32 36 38 41 44 45 45 47 49 46 46 50 60 65 62 60 59 66 73 73 60 44 38 36 40 40 57 47 34 29 23 18 15 20 20 16
27 30 33 37 38 39 40 41 44 45 45 45 44 45 48 52 63 64 63 65 66 68 69 55 46 39 36 36 46 50 40 33 31 32 33 40 37 33
31 32 34 36 37 38 39 41 43 45 47 46 44 44 44 45 56 60 61 65 60 58 61 65 56 42 36 35 33 39 36 37 39 47 47 51 52 48
31 31 32 33 36 37 38 39 41 45 47 46 45 46 45 41 44 48 50 57 59 53 54 57 56 45 26 18 16 25 31 34 34 39 43 52 61 65
31 32 32 33 35 37 39 41 42 44 46 46 47 49 51 42 41 43 49 53 60 49 46 40 51 42 28 12 8 9 12 17 19 18 25 22 27 56
31 31 31 34 35 36 38 41 42 45 47 46 48 49 52 53 50 45 45 50 59 53 52 44 42 43 30 16 7 11 15 18 22 24 39 35 42 57
Wind_Direction_850mb
312 316 298 300 297 292 290 292 293 299 299 302 303 297 290 292 280 289 280 276 278 281 280 283 281 279 277 274 272 267 261 256 254 255 255 251 246 244
313 304 305 304 301 302 298 294 293 295 297 303 301 299 293 290 285 283 281 284 287 288 291 295 294 288 283 278 271 267 263 255 253 252 255 249 245 241
313 310 306 308 309 306 302 303 303 302 299 303 302 304 299 297 299 296 294 289 292 292 289 285 283 282 284 289 284 272 265 265 253 252 253 246 245 242
313 311 310 311 308 307 308 302 301 301 302 304 305 303 299 293 294 290 286 282 283 281 282 284 287 285 291 283 293 288 269 256 255 250 245 239 241 242
310 305 306 307 309 307 310 310 307 305 303 297 301 306 301 294 299 297 292 290 283 278 284 289 289 289 288 292 288 291 276 267 251 243 245 236 235 235
307 312 316 327 319 314 309 310 314 304 300 301 300 302 300 312 314 304 297 299 287 284 289 284 283 284 282 295 292 293 278 267 259 245 240 238 232 231
306 319 320 309 310 310 309 313 311 308 307 306 306 311 320 322 319 319 307 309 306 303 298 292 279 279 283 283 284 295 286 274 262 246 242 236 236 231
332 334 337 341 318 317 319 318 320 323 319 320 320 318 322 330 329 323 313 305 297 305 298 293 281 264 265 283 282 275 274 274 269 251 241 237 231 236
333 341 352 343 335 339 341 339 329 316 325 330 323 327 323 335 334 329 321 308 306 311 301 295 293 288 288 288 276 271 272 264 268 249 241 239 238 234
358 13 349 348 349 357 360 1 3 3 342 347 343 357 357 347 334 333 331 321 318 326 323 299 328 318 321 305 292 283 270 263 258 248 245 232 227 228
32 7 354 346 4 10 11 8 3 359 355 351 353 355 1 4 349 341 344 341 332 333 345 321 336 336 336 337 320 309 273 257 260 249 232 227 219 219
34 354 341 352 18 15 16 12 7 9 359 357 359 1 360 7 3 3 3 355 349 349 351 339 352 347 331 312 320 330 252 246 251 240 224 222 222 220
12 349 359 5 20 11 10 8 8 12 10 6 8 8 23 16 12 10 8 10 9 1 357 346 343 346 338 328 345 359 45 203 232 221 212 216 218 220
1 3 3 5 24 9 8 8 2 11 9 16 14 14 10 19 19 17 2 359 8 8 8 358 337 337 333 334 350 356 39 127 104 155 177 202 208 206
11 11 14 5 18 6 8 7 5 359 2 13 18 19 17 20 20 15 18 9 356 6 0 356 355 8 359 358 4 18 37 61 161 145 179 196 199 198
2 7 5 10 10 2 7 6 4 359 1 358 12 19 21 26 21 27 6 12 11 1 7 3 349 0 25 21 27 31 34 44 52 90 224 231 219 208
359 356 359 4 4 360 3 1 360 358 359 357 354 10 22 25 32 34 29 20 13 12 13 13 12 11 2 21 31 26 28 37 43 52 83 153 186 199
4 1 2 4 3 360 358 357 357 355 356 355 354 354 359 15 21 27 30 28 21 20 18 13 13 9 11 12 28 30 30 36 44 57 79 107 112 129
15 13 7 6 3 359 357 357 355 352 354 355 354 354 352 357 10 18 21 24 16 16 19 17 20 21 18 16 27 33 39 50 69 81 91 91 95 93
22 17 12 7 2 1 358 357 355 353 356 355 354 353 352 357 353 6 15 15 13 13 8 12 14 7 14 26 43 41 51 61 75 82 82 90 91 92
14 14 9 5 1 359 358 357 357 354 354 354 353 353 355 357 353 352 3 8 7 10 10 4 3 2 0 357 19 61 64 70 70 76 89 97 98 96
14 15 11 6 2 0 359 358 355 355 354 354 352 351 360 3 353 352 7 3 2 6 5 359 352 357 355 2 18 59 58 54 91 77 81 88 103 106
13 13 11 7 3 2 359 359 354 354 353 353 352 349 1 5 2 11 2 358 359 2 1 4 349 350 351 350 16 73 79 86 89 93 81 97 113 110